Location: Biharia
(46.4333°N, 22.8000°E)
Time: 03:55:07
(UTC+00:00)

Cosmos 494 Rocket - Pass Details

Date: 01 June 2022
Orbit: 742 x 770 km, 74.1° (Epoch: 05 July)

Event Time Altitude Azimuth Distance (km) Brightness Sun altitude
Rises 20:26:19 0° 345° (NNW) 3,193 8.8 -16.2°
Reaches altitude 10° 20:29:01 10° 358° (N) 2,265 7.4 -16.4°
Maximum altitude 20:33:23 27° 56° (NE) 1,397 5.4 -16.8°
Enters shadow 20:36:26 16° 104° (ESE) 1,874 5.6 -17.0°
